This is the latest recevied weather packets stored in our database for station/object W3BRL. If no packets are shown the sender has not sent any weather packets the latest 1 day(s).
| Time | Temp. | Humidity | Pressure | Rain* | Wind** | Luminosity | Snow |
|---|---|---|---|---|---|---|---|
| 1778034899 | 19.44° C | 47% | 1005.9 hPa | 0 mm | 1.34 m/s, 200° | 0 W/m² | - |
| 1778034595 | 19.44° C | 46% | 1005.7 hPa | 0 mm | 1.79 m/s, 194° | 0 W/m² | - |
| 1778034293 | 20° C | 46% | 1005.9 hPa | 0 mm | 1.79 m/s, 214° | 0 W/m² | - |
| 1778033991 | 20° C | 46% | 1005.8 hPa | 0 mm | 2.68 m/s, 210° | 0 W/m² | - |
| 1778033688 | 20° C | 46% | 1005.9 hPa | 0 mm | 3.13 m/s, 185° | 0 W/m² | - |
| 1778033385 | 20° C | 46% | 1006 hPa | 0 mm | 0.89 m/s, 187° | 0 W/m² | - |
| 1778033083 | 20° C | 46% | 1005.8 hPa | 0 mm | 1.79 m/s, 205° | 0 W/m² | - |
| 1778032780 | 20° C | 46% | 1005.8 hPa | 0 mm | 2.24 m/s, 200° | 0 W/m² | - |
| 1778032477 | 20° C | 46% | 1005.9 hPa | 0 mm | 1.79 m/s, 196° | 0 W/m² | - |
| 1778032174 | 20° C | 45% | 1006 hPa | 0 mm | 2.68 m/s, 214° | 0 W/m² | - |
| 1778031871 | 20° C | 45% | 1005.8 hPa | 0 mm | 0.89 m/s, 190° | 0 W/m² | - |
| 1778031567 | 20° C | 45% | 1005.9 hPa | 0 mm | 1.34 m/s, 201° | 0 W/m² | - |
| 1778031266 | 20° C | 45% | 1005.7 hPa | 0 mm | 1.79 m/s, 169° | 0 W/m² | - |
| 1778030961 | 20° C | 44% | 1005.8 hPa | 0 mm | 1.79 m/s, 179° | 0 W/m² | - |
| 1778030658 | 20° C | 45% | 1005.8 hPa | 0 mm | 1.34 m/s, 177° | 0 W/m² | - |
| 1778030355 | 20° C | 44% | 1005.9 hPa | 0 mm | 1.34 m/s, 198° | 0 W/m² | - |
| 1778030052 | 20.56° C | 44% | 1005.8 hPa | 0 mm | 1.79 m/s, 199° | 0 W/m² | - |
| 1778029749 | 20.56° C | 44% | 1005.9 hPa | 0 mm | 1.79 m/s, 175° | 0 W/m² | - |
| 1778029448 | 20.56° C | 44% | 1005.8 hPa | 0 mm | 0.89 m/s, 200° | 0 W/m² | - |
| 1778029144 | 20.56° C | 44% | 1005.8 hPa | 0 mm | 0.89 m/s, 186° | 0 W/m² | - |
| 1778028842 | 20.56° C | 44% | 1006 hPa | 0 mm | 2.68 m/s, 196° | 0 W/m² | - |
| 1778028536 | 20.56° C | 44% | 1006 hPa | 0 mm | 1.79 m/s, 195° | 0 W/m² | - |
| 1778028235 | 20.56° C | 44% | 1006.2 hPa | 0 mm | 0.45 m/s, 183° | 0 W/m² | - |
| 1778027931 | 20.56° C | 43% | 1005.9 hPa | 0 mm | 1.79 m/s, 192° | 0 W/m² | - |
| 1778027627 | 20.56° C | 43% | 1006 hPa | 0 mm | 2.68 m/s, 214° | 0 W/m² | - |
* Rain latest hour (hover to see other rain measurements)
** Current wind speed in m/s (hover to see current wind gust speed)